MIDAS 5 DEB, 274

Orbit data source: Space-Track

MIDAS 5 DEB, 274 is space debris in LEO originally from a launch on Mon, 09 Apr 1962 UTC launched from the Air Force Western Test Range (AFWTR). Debris objects in space refer to the collection of defunct objects orbiting the Earth. Examples of debris include non-operational satellites, rocket bodies, and fragments generated from explosions, collisions, or faulty payload assembly.

Loading next visibility...
Identifier
274, 1962-010D
Orbit
LEO
Country
Flag of USUS
Related business
Manufacturer
Unknown
Mission
Spacecraft
Bus & Motor
Unknown
Mass
~10 kg wet, ~10 kg dry
Launch date (UTC)
1962-04-09 (64 years ago)
Launch vehicle
Unknown
Launch site
Air Force Western Test Range (AFWTR)
Object type
Payload
Rocket body
Debris
Shape & HBR
Unknown shape, 0.5 m
Radar Cross Section
Medium (>0.1 m² and <1 m²)

Expand to show TLE details & history
Last TLE update: 18 hours ago

TLE from 18 hours ago
0 MIDAS 5 DEB
1 00274U 62010D   26104.04550128  .00000003  00000-0 -47627-4 0  9994
2 00274  86.6760 342.9216 0346436 247.8478 108.5317  9.39368677194761
Epoch: 2026-04-14T01:05Z
TLE epoch observation values (Epoch: 2026-04-14T01:05:31.310Z)
Latitude
-0.00006°
Longitude
124.31375°
Altitude
3,226.783 km
Speed
6.404 km/s
True Right ascension
22h 51m 41s
True Declination
0° 00' 00"
Sunlit
Object was in daylight at epoch
Visualization orbit readout
Latitude
Unknown
Longitude
Unknown
Altitude
Unknown
Speed
Unknown
Apparent Right ascension
Unknown
Apparent Declination
Unknown
Sunlit
N/A
Visualization observer readout
Local Sidereal Time
01:55:35
Azimuth
Unknown
Elevation
Unknown
Doppler factor
Unknown
Orbital elements
Apogee altitude
3,436.257 km
Perigee altitude
2,779.014 km
Semi-major axis
9,485.773 km
Eccentricity
0.03464
Inclination
86.676°
RAAN
342.9216°
Arg. of periapsis
247.8478°
True anomaly
112.242°
Mean anomaly
108.5317°
Eccentric anomaly
110.39223°
Mean motion
2.34928 °/min
Orbital period
153.24 mins
BSTAR
-0.000047627
Loading maneuver chart data...
Computing Atmospheric mass density...
Loading historical data...
Loading historical data...
Loading historical data...
Loading historical data...
Loading historical data...
Loading historical data...
Loading historical data...

Documentation

Showing up to 5 results
|